Regional Weather Roundup
Issued by NWS

Home | Current Version | Previous Version | Graphics & Text | Print | Product List | Glossary On
Versions: 1 2 3 4 5 6 7 8 9 10 11 12 13 14 15 16 17 18 19 20 21 22 23 24 25 26 27 28 29 30 31 32 33 34 35 36 37 38 39 40 41 42 43 44 45 46 47 48 49 50
582
ASUS43 KMPX 061601
RWRMN
WEATHER ROUNDUP FOR MINNESOTA
NATIONAL WEATHER SERVICE TWIN CITIES/CHANHASSEN MN
1100 AM CDT FRI MAY 06 2016


NOTE: "FAIR" INDICATES FEW OR NO CLOUDS BELOW 12,000 FEET WITH NO
SIGNIFICANT WEATHER AND/OR OBSTRUCTIONS TO VISIBILITY. N/A MEANS
CURRENT SKY AND/OR WEATHER CONDITIONS ARE NOT AVAILABLE.

MNZ060>063-068>070-061700-
   Twin Cities Metro

CITY           SKY/WX    TMP DP  RH WIND       PRES   REMARKS
TWIN CITIES    SUNNY     79  49  34 W10       29.84F
ST PAUL        SUNNY     78  52  40 W14       29.83F
CRYSTAL        SUNNY     79  49  34 SW13      29.82F
BLAINE         SUNNY     81  50  34 S12       29.82F
EDEN PRAIRIE   SUNNY     80  49  33 SW9       29.83F
SOUTH ST PAUL  SUNNY     80  48  32 SW10      29.83F
LAKE ELMO      FAIR      77  52  41 SW10      29.84F
$$
MNZ001>005-007-008-013>017-022>024-027-028-061700-
   Northwest Minnesota

CITY           SKY/WX    TMP DP  RH WIND       PRES   REMARKS
BEMIDJI        MOSUNNY   82  47  30 W12       29.72F
HALLOCK        MOSUNNY   66  37  34 N29G35    29.79S
ROSEAU         MOSUNNY   73  46  38 NW20      29.73R
WARROAD        SUNNY     70  52  52 NW20      29.72R
THIEF RVR FALL CLOUDY    70  45  40 NW16      29.77R
CROOKSTON      SUNNY     70  46  43 N26       29.78R
FOSSTON        MOSUNNY   77  45  31 W13       29.76R
DETROIT LAKES  SUNNY     77  50  38 W8        29.78S
MOORHEAD       SUNNY     79  48  34 NW7       29.76R
PARK RAPIDS    SUNNY     81  48  31 W5        29.75F
MAHNOMEN       FAIR      78  47  34 W9        29.75S
$$
MNZ006-009>011-018-025>026-061700-
   North Central Minnesota

CITY           SKY/WX    TMP DP  RH WIND       PRES   REMARKS
BAUDETTE       CLOUDY    81  45  28 NW20      29.68R
FLAG ISLAND    CLOUDY    63  46  55 NW21      29.69R
INTL FALLS     MOSUNNY   80  47  31 SW12G23   29.65F
WASKISH        MOSUNNY   72  52  49 SW9       29.70R
BIG FORK       PTSUNNY   84  46  26 SW12G17   29.70F
LONGVILLE      SUNNY     81  46  30 SW6       29.75S
GRAND RAPIDS   SUNNY     82  46  28 W8        29.75F
CRANE LAKE     SUNNY     81  45  28 SW6       29.67F
ORR            MOSUNNY   82  39  21 SW10      29.66S
COOK           MOSUNNY   82  46  28 SW14G20   29.70S
WALKER         FAIR      80  49  33 SW6       29.73F
$$
MNZ012-019>021-037-061700-
   Northeast Minnesota

CITY           SKY/WX    TMP DP  RH WIND       PRES   REMARKS
DULUTH         SUNNY     85  43  22 W18       29.75F
ELY            SUNNY     82  43  24 W13G18    29.69F
HIBBING        SUNNY     82  44  26 W10G21    29.72F
EVELETH        SUNNY     82  43  24 W16       29.73F
DULUTH HARBOR  SUNNY     82  46  28 SW12      29.73F
TWO HARBORS    SUNNY     88  54  31 W12G24    29.71F
SILVER BAY     CLOUDY    86  43  22 SW10      29.70F
GRAND MARAIS     N/A     45  36  70 E5        29.72F
G MARAIS ARPRT SUNNY     81  43  26 SW8       29.73F
$$
MNZ029>031-032-039>041-046>048-054>057-064-061700-
   West Central Minnesota

CITY           SKY/WX    TMP DP  RH WIND       PRES   REMARKS
FERGUS FALLS   SUNNY     77  52  41 W3        29.73F
WHEATON        SUNNY     81  55  41 W5        29.77F
MORRIS         MOSUNNY   77  52  41 SW9       29.76F
ALEXANDRIA     SUNNY     75  49  39 SW8       29.79F
ELBOW LAKE     FAIR      76  52  42 SW6       29.77F
WADENA         SUNNY     79  52  38 SW10      29.76S
GLENWOOD       CLOUDY    75  50  41 SW12      29.80S
APPLETON       MOSUNNY   79  48  34 W16       29.76F
BENSON         CLOUDY    77  46  33 W15       29.78S
ORTONVILLE     SUNNY     79  52  38 W13       29.76F
MADISON        SUNNY     79  50  36 W16G23    29.78S
WILLMAR        FAIR      82  48  30 SW17G25   29.80F
$$
MNZ033>034-036-042>043-049>051-058-059-061700-
   Central Minnesota

CITY           SKY/WX    TMP DP  RH WIND       PRES   REMARKS
ST CLOUD       SUNNY     80  49  33 SW13      29.79F
SAUK CENTRE      N/A     77  51  40 SW9       29.79F
PAYNESVILLE    SUNNY     78  47  32 SW9G17    29.80F
AITKIN         SUNNY     84  39  20 SW7       29.74F
PINE RIVER     SUNNY     81  54  39 SW12      29.78F
BRAINERD       SUNNY     81  49  32 SW9       29.76F
STAPLES        SUNNY     81  48  32 SW9       29.76F
LONG PRAIRIE   FAIR      77  50  38 SW12      29.80F
LITTLE FALLS   SUNNY     79  45  29 SW9       29.79S
LITCHFIELD     SUNNY     82  48  30 SW9G16    29.81F
BUFFALO        SUNNY     76  47  36 S8        29.83F
MAPLE LAKE     SUNNY     78  52  40 SW8       29.83F
HUTCHINSON     MOSUNNY   82  52  34 SW14G20   29.83F
$$
MNZ037-044-045-052-053-061700-
   East Central Minnesota

CITY           SKY/WX    TMP DP  RH WIND       PRES   REMARKS
PRINCETON      SUNNY     82  48  30 S10G16    29.80F
MORA           SUNNY     75  46  35 SW8       29.81S
CAMBRIDGE      SUNNY     82  57  42 SW7       29.78F
RUSH CITY      SUNNY     80  48  33 S8        29.80F
MOOSE LAKE     SUNNY     84  50  30 SW10      29.74F
HINCKLEY       CLOUDY    79  52  38 SW8       29.79F
CLOQUET        SUNNY     84  39  20 SW12G17   29.75F
MCGREGOR       SUNNY     81  48  32 SW8       29.76F
$$
MNZ071>073-080-081-089-090-097-098-061700-
   Southwest Minnesota

CITY           SKY/WX    TMP DP  RH WIND       PRES   REMARKS
MONTEVIDEO     MOSUNNY   82  50  32 W15G22    29.80F
GRANITE FALLS  MOSUNNY   83  50  32 SW18G26   29.81F
CANBY          SUNNY     81  52  36 SW24G31   29.78F
MARSHALL       SUNNY     81  51  35 SW26G39   29.80F
REDWOOD FALLS  SUNNY     82  48  30 SW25G35   29.81F
OLIVIA         SUNNY     79  46  31 SW25      29.80F
PIPESTONE      SUNNY     75  48  38 W23       29.88F
WINDOM         SUNNY     79  45  29 SW21G28   29.88F
WORTHINGTON    SUNNY     77  50  38 SW23G30   29.89F
JACKSON        MOSUNNY   77  37  24 SW18G29   29.91S
TRACY          SUNNY     79  50  36 SW29G35   29.84F
SLAYTON        SUNNY     74  47  38 SW25      29.88F
$$
MNZ065>067-074>077-082>085-091>093-061700-
   South Central Minnesota

CITY           SKY/WX    TMP DP  RH WIND       PRES   REMARKS
MANKATO        SUNNY     81  46  30 SW22      29.86F
NEW ULM        SUNNY     79  46  31 SW14G20   29.85F
ST JAMES       SUNNY     75  41  29 SW24      29.86F
FAIRMONT       SUNNY     79  46  31 SW18      29.89F
GLENCOE        SUNNY     80  52  37 SW9       29.83F
FARIBAULT      SUNNY     79  48  34 SW13      29.88F
OWATONNA       SUNNY     82  45  26 SW17G24   29.88F
WASECA         SUNNY     79  46  31 SW18G24   29.89F
ALBERT LEA     SUNNY     81  45  28 SW9       29.90F
$$
MNZ078>079-086>088-094>096-061700-
   Southeast Minnesota

CITY           SKY/WX    TMP DP  RH WIND       PRES   REMARKS
ROCHESTER      SUNNY     82  47  29 W21       29.90F
RED WING       SUNNY     82  46  28 W7        29.83F
STANTON        SUNNY     81  47  30 SW14      29.84F
DODGE CENTER   SUNNY     81  45  28 W20G26    29.90F
WINONA         SUNNY     77  46  33 CALM      29.87F
AUSTIN         SUNNY     79  46  31 W12       29.91F
PRESTON        SUNNY     78  46  32 W18       29.92S
$$
ABBREVIATIONS USED IN REMARKS
   TC - TEMPERATURES IN CELSIUS
  WCI - WIND CHILL INDEX
   HX - HEAT INDEX
  VSB - VISIBILITY
$$




USA.gov is the U.S. government's official web portal to all federal, state and local government web resources and services.